| time (UTC) | temp F | wind direction | speed MPH | gust MPH | rain 1hr in | rain 24hr in | rain mn in | humidity % | barometer mb |
| 20260507101518 | 53 | 10 | 0.0 | 2.0 | 0.00 | 0.17 | 0.00 | 91 | 1019.0 |
| 20260507100515 | 54 | 34 | 0.0 | 1.0 | 0.00 | 0.17 | 0.00 | 91 | 1018.8 |
| 20260507095516 | 54 | 314 | 0.0 | 2.0 | 0.00 | 0.17 | 0.00 | 90 | 1018.7 |
| 20260507094515 | 54 | 14 | 0.0 | 1.0 | 0.00 | 0.17 | 0.00 | 89 | 1018.5 |
| 20260507093516 | 54 | 71 | 0.0 | 1.0 | 0.00 | 0.17 | 0.00 | 88 | 1018.3 |
| 20260507092516 | 55 | 125 | 0.0 | 1.0 | 0.00 | 0.17 | 0.00 | 87 | 1018.2 |
| 20260507091557 | 55 | 54 | 0.0 | 1.0 | 0.00 | 0.17 | 0.00 | 86 | 1018.3 |
| 20260507090557 | 56 | 60 | 1.0 | 3.0 | 0.00 | 0.17 | 0.00 | 85 | 1018.2 |
| 20260507085517 | 56 | 54 | 2.0 | 3.0 | 0.00 | 0.17 | 0.00 | 85 | 1018.0 |
| 20260507084517 | 56 | 53 | 1.0 | 3.0 | 0.00 | 0.17 | 0.00 | 86 | 1017.8 |
| 20260507083517 | 56 | 52 | 1.0 | 3.0 | 0.00 | 0.17 | 0.00 | 86 | 1017.8 |
| 20260507082518 | 56 | 52 | 1.0 | 5.0 | 0.00 | 0.17 | 0.00 | 86 | 1018.0 |
| 20260507081517 | 56 | 47 | 0.0 | 2.0 | 0.00 | 0.17 | 0.00 | 85 | 1018.1 |
| 20260507080537 | 57 | 37 | 0.0 | 4.0 | 0.00 | 0.17 | 0.00 | 84 | 1018.1 |
| 20260507075538 | 57 | 52 | 0.0 | 2.0 | 0.00 | 0.17 | 0.00 | 83 | 1018.0 |
| 20260507074538 | 57 | 49 | 1.0 | 3.0 | 0.00 | 0.17 | 0.00 | 81 | 1017.9 |
| 20260507073516 | 58 | 50 | 1.0 | 4.0 | 0.00 | 0.17 | 0.00 | 81 | 1017.7 |
| 20260507072536 | 58 | 53 | 2.0 | 4.0 | 0.00 | 0.17 | 0.00 | 80 | 1017.5 |
| 20260507071515 | 58 | 51 | 2.0 | 4.0 | 0.00 | 0.17 | 0.00 | 80 | 1017.2 |
| 20260507070536 | 58 | 42 | 2.0 | 5.0 | 0.00 | 0.17 | 0.00 | 81 | 1017.2 |
| 20260507065516 | 58 | 49 | 2.0 | 7.0 | 0.00 | 0.17 | 0.00 | 81 | 1017.1 |
| 20260507064516 | 58 | 47 | 3.0 | 6.0 | 0.00 | 0.17 | 0.00 | 82 | 1017.2 |
| 20260507063517 | 58 | 53 | 2.0 | 4.0 | 0.00 | 0.17 | 0.00 | 82 | 1017.3 |
| 20260507062516 | 59 | 52 | 2.0 | 4.0 | 0.00 | 0.17 | 0.00 | 82 | 1017.3 |
| 20260507061517 | 59 | 58 | 2.0 | 6.0 | 0.00 | 0.17 | 0.00 | 81 | 1017.2 |
| 20260507060517 | 59 | 59 | 1.0 | 3.0 | 0.00 | 0.17 | 0.00 | 81 | 1017.1 |
| 20260507055537 | 59 | 62 | 2.0 | 5.0 | 0.00 | 0.17 | 0.00 | 79 | 1017.1 |
| 20260507054517 | 59 | 61 | 2.0 | 5.0 | 0.00 | 0.17 | 0.00 | 78 | 1017.1 |
| 20260507053517 | 60 | 56 | 2.0 | 4.0 | 0.00 | 0.17 | 0.00 | 78 | 1017.1 |
| 20260507052537 | 60 | 59 | 2.0 | 4.0 | 0.00 | 0.17 | 0.00 | 77 | 1017.1 |
| 20260507051538 | 60 | 58 | 1.0 | 3.0 | 0.00 | 0.17 | 0.00 | 77 | 1017.2 |
| 20260507050518 | 60 | 61 | 2.0 | 4.0 | 0.00 | 0.17 | 0.00 | 77 | 1017.0 |
| 20260507045521 | 60 | 54 | 2.0 | 5.0 | 0.00 | 0.17 | 0.17 | 76 | 1017.0 |
| 20260507044536 | 60 | 53 | 2.0 | 5.0 | 0.00 | 0.17 | 0.17 | 76 | 1017.1 |
| 20260507043516 | 60 | 55 | 2.0 | 8.0 | 0.00 | 0.17 | 0.17 | 75 | 1017.2 |
| 20260507042516 | 60 | 50 | 2.0 | 9.0 | 0.00 | 0.17 | 0.17 | 75 | 1017.3 |
| 20260507041537 | 60 | 53 | 2.0 | 4.0 | 0.00 | 0.17 | 0.17 | 75 | 1017.3 |
| 20260507040516 | 61 | 53 | 3.0 | 8.0 | 0.00 | 0.17 | 0.17 | 76 | 1017.3 |
| 20260507035516 | 61 | 52 | 2.0 | 5.0 | 0.00 | 0.17 | 0.17 | 78 | 1017.4 |
| 20260507034517 | 61 | 52 | 2.0 | 6.0 | 0.00 | 0.17 | 0.17 | 80 | 1017.4 |
| 20260507033517 | 61 | 62 | 2.0 | 3.0 | 0.00 | 0.17 | 0.17 | 80 | 1017.4 |
| 20260507032518 | 61 | 53 | 1.0 | 4.0 | 0.00 | 0.17 | 0.17 | 81 | 1017.3 |
| 20260507031518 | 61 | 56 | 1.0 | 4.0 | 0.00 | 0.17 | 0.17 | 81 | 1017.2 |
| 20260507030638 | 61 | 57 | 1.0 | 4.0 | 0.00 | 0.17 | 0.17 | 82 | 1017.1 |
| 20260507025517 | 60 | 62 | 1.0 | 3.0 | 0.00 | 0.17 | 0.17 | 83 | 1017.0 |
| 20260507024518 | 60 | 50 | 1.0 | 4.0 | 0.00 | 0.17 | 0.17 | 85 | 1016.9 |
| 20260507023518 | 61 | 71 | 0.0 | 2.0 | 0.00 | 0.17 | 0.17 | 85 | 1016.7 |
| 20260507022518 | 61 | 61 | 0.0 | 1.0 | 0.00 | 0.17 | 0.17 | 83 | 1016.4 |
| 20260507021515 | 61 | 56 | 2.0 | 4.0 | 0.00 | 0.17 | 0.17 | 82 | 1016.1 |
| 20260507020515 | 61 | 61 | 1.0 | 2.0 | 0.00 | 0.17 | 0.17 | 82 | 1015.9 |
| 20260507015516 | 61 | 55 | 2.0 | 5.0 | 0.00 | 0.17 | 0.17 | 84 | 1015.7 |
| 20260507014516 | 60 | 61 | 1.0 | 4.0 | 0.00 | 0.17 | 0.17 | 89 | 1015.5 |
| 20260507013516 | 61 | 62 | 0.0 | 2.0 | 0.00 | 0.17 | 0.17 | 89 | 1015.3 |
| 20260507012517 | 61 | 60 | 1.0 | 2.0 | 0.00 | 0.17 | 0.17 | 89 | 1015.1 |
| 20260507011516 | 61 | 62 | 1.0 | 2.0 | 0.00 | 0.17 | 0.17 | 89 | 1014.9 |
| 20260507010517 | 61 | 59 | 1.0 | 2.0 | 0.00 | 0.17 | 0.17 | 89 | 1014.8 |
| 20260507005517 | 61 | 56 | 0.0 | 2.0 | 0.00 | 0.17 | 0.17 | 89 | 1014.8 |
| 20260507004517 | 61 | 64 | 0.0 | 1.0 | 0.00 | 0.17 | 0.17 | 89 | 1014.6 |
| 20260507003517 | 61 | 48 | 0.0 | 1.0 | 0.00 | 0.17 | 0.17 | 89 | 1014.6 |
| 20260507002517 | 61 | 66 | 0.0 | 2.0 | 0.00 | 0.17 | 0.17 | 89 | 1014.5 |
| 20260507001517 | 61 | 98 | 0.0 | 2.0 | 0.00 | 0.17 | 0.17 | 88 | 1014.5 |
| 20260507000517 | 61 | 67 | 0.0 | 1.0 | 0.00 | 0.17 | 0.17 | 88 | 1014.3 |
| 20260506235518 | 61 | 71 | 0.0 | 1.0 | 0.00 | 0.17 | 0.17 | 88 | 1014.3 |
| 20260506234518 | 61 | 62 | 0.0 | 2.0 | 0.01 | 0.17 | 0.17 | 88 | 1014.2 |
| 20260506233518 | 60 | 58 | 1.0 | 2.0 | 0.10 | 0.17 | 0.17 | 87 | 1014.0 |
| 20260506232515 | 60 | 58 | 1.0 | 3.0 | 0.11 | 0.17 | 0.17 | 87 | 1014.0 |
| 20260506231539 | 60 | 77 | 1.0 | 3.0 | 0.11 | 0.17 | 0.17 | 87 | 1014.2 |
| 20260506230515 | 60 | 63 | 0.0 | 2.0 | 0.11 | 0.17 | 0.17 | 86 | 1013.9 |
| 20260506225516 | 61 | 56 | 2.0 | 4.0 | 0.11 | 0.17 | 0.17 | 84 | 1013.9 |
| 20260506224515 | 62 | 359 | 1.0 | 3.0 | 0.10 | 0.16 | 0.16 | 80 | 1014.1 |
| 20260506223516 | 63 | 55 | 1.0 | 3.0 | 0.01 | 0.07 | 0.07 | 72 | 1014.4 |
| 20260506222517 | 64 | 59 | 1.0 | 6.0 | 0.00 | 0.06 | 0.06 | 70 | 1013.6 |
| 20260506221517 | 64 | 43 | 1.0 | 3.0 | 0.00 | 0.06 | 0.06 | 70 | 1013.6 |
| 20260506220517 | 64 | 30 | 1.0 | 2.0 | 0.00 | 0.06 | 0.06 | 70 | 1013.6 |
| 20260506215516 | 63 | 42 | 1.0 | 3.0 | 0.00 | 0.06 | 0.06 | 71 | 1013.8 |
| 20260506214517 | 63 | 53 | 1.0 | 4.0 | 0.00 | 0.06 | 0.06 | 71 | 1013.6 |
| 20260506213517 | 63 | 45 | 1.0 | 3.0 | 0.00 | 0.06 | 0.06 | 70 | 1013.8 |
| 20260506212518 | 63 | 26 | 1.0 | 6.0 | 0.00 | 0.06 | 0.06 | 70 | 1013.5 |
| 20260506211538 | 63 | 56 | 1.0 | 4.0 | 0.00 | 0.06 | 0.06 | 70 | 1013.7 |
| 20260506210518 | 62 | 49 | 1.0 | 5.0 | 0.00 | 0.06 | 0.06 | 70 | 1013.8 |
| 20260506205517 | 62 | 45 | 1.0 | 4.0 | 0.00 | 0.06 | 0.06 | 71 | 1013.8 |
| 20260506204518 | 62 | 43 | 1.0 | 4.0 | 0.00 | 0.06 | 0.06 | 71 | 1014.0 |
| 20260506203535 | 62 | 58 | 2.0 | 6.0 | 0.00 | 0.06 | 0.06 | 71 | 1014.0 |
| 20260506202519 | 61 | 53 | 1.0 | 6.0 | 0.00 | 0.06 | 0.06 | 73 | 1014.3 |
| 20260506201516 | 62 | 4 | 1.0 | 4.0 | 0.00 | 0.06 | 0.06 | 72 | 1014.4 |
| 20260506200515 | 62 | 54 | 2.0 | 7.0 | 0.00 | 0.06 | 0.06 | 71 | 1014.5 |
| 20260506195516 | 62 | 53 | 2.0 | 6.0 | 0.00 | 0.06 | 0.06 | 73 | 1014.6 |
| 20260506194516 | 61 | 62 | 1.0 | 4.0 | 0.00 | 0.06 | 0.06 | 74 | 1014.6 |
| 20260506193516 | 60 | 38 | 1.0 | 4.0 | 0.00 | 0.06 | 0.06 | 76 | 1014.7 |
| 20260506192516 | 60 | 2 | 0.0 | 2.0 | 0.00 | 0.06 | 0.06 | 76 | 1014.9 |
| 20260506191517 | 59 | 29 | 1.0 | 3.0 | 0.00 | 0.06 | 0.06 | 78 | 1015.0 |
| 20260506190536 | 58 | 318 | 0.0 | 3.0 | 0.00 | 0.06 | 0.06 | 80 | 1015.3 |
| 20260506185517 | 58 | 22 | 0.0 | 2.0 | 0.00 | 0.06 | 0.06 | 80 | 1015.4 |
| 20260506184519 | 58 | 35 | 1.0 | 2.0 | 0.00 | 0.06 | 0.06 | 80 | 1015.3 |
| 20260506183517 | 58 | 336 | 1.0 | 3.0 | 0.00 | 0.06 | 0.06 | 80 | 1015.4 |
| 20260506182517 | 58 | 51 | 1.0 | 5.0 | 0.00 | 0.06 | 0.06 | 80 | 1014.9 |
| 20260506181517 | 58 | 50 | 1.0 | 4.0 | 0.00 | 0.06 | 0.06 | 80 | 1014.4 |
| 20260506180518 | 58 | 28 | 2.0 | 6.0 | 0.00 | 0.06 | 0.06 | 81 | 1013.5 |
| 20260506175538 | 57 | 33 | 2.0 | 7.0 | 0.00 | 0.06 | 0.06 | 83 | 1013.7 |
| 20260506174518 | 56 | 39 | 2.0 | 7.0 | 0.00 | 0.06 | 0.06 | 85 | 1013.8 |
| 20260506173516 | 56 | 45 | 2.0 | 7.0 | 0.00 | 0.06 | 0.06 | 85 | 1014.4 |
| 20260506172516 | 56 | 43 | 2.0 | 7.0 | 0.00 | 0.06 | 0.06 | 87 | 1014.6 |
| 20260506171516 | 56 | 47 | 1.0 | 5.0 | 0.00 | 0.06 | 0.06 | 88 | 1014.6 |
| 20260506170516 | 55 | 45 | 2.0 | 4.0 | 0.00 | 0.06 | 0.06 | 88 | 1014.8 |
| 20260506165516 | 55 | 37 | 1.0 | 5.0 | 0.00 | 0.06 | 0.06 | 89 | 1014.8 |
| 20260506164516 | 55 | 46 | 1.0 | 4.0 | 0.00 | 0.06 | 0.06 | 89 | 1014.9 |
| 20260506163517 | 55 | 37 | 1.0 | 3.0 | 0.00 | 0.06 | 0.06 | 89 | 1014.4 |
| 20260506162517 | 56 | 41 | 2.0 | 6.0 | 0.00 | 0.06 | 0.06 | 89 | 1014.7 |
| 20260506161517 | 55 | 43 | 1.0 | 8.0 | 0.01 | 0.06 | 0.06 | 89 | 1014.6 |
| 20260506160517 | 55 | 37 | 1.0 | 4.0 | 0.01 | 0.06 | 0.06 | 89 | 1014.6 |
| 20260506155537 | 56 | 41 | 2.0 | 6.0 | 0.06 | 0.06 | 0.06 | 90 | 1015.0 |
| 20260506154517 | 55 | 14 | 1.0 | 4.0 | 0.06 | 0.06 | 0.06 | 91 | 1014.5 |
| 20260506153517 | 54 | 43 | 1.0 | 6.0 | 0.06 | 0.06 | 0.06 | 91 | 1013.9 |
| 20260506152518 | 54 | 47 | 1.0 | 4.0 | 0.06 | 0.06 | 0.06 | 90 | 1014.3 |
| 20260506151538 | 54 | 33 | 1.0 | 3.0 | 0.05 | 0.05 | 0.05 | 88 | 1015.9 |
| 20260506150518 | 54 | 59 | 2.0 | 5.0 | 0.05 | 0.05 | 0.05 | 85 | 1015.0 |
| 20260506145516 | 55 | 309 | 1.0 | 4.0 | 0.00 | 0.00 | 0.00 | 83 | 1016.4 |
| 20260506144515 | 55 | 358 | 1.0 | 3.0 | 0.00 | 0.00 | 0.00 | 82 | 1016.1 |
| 20260506143516 | 55 | 310 | 1.0 | 4.0 | 0.00 | 0.00 | 0.00 | 81 | 1016.4 |
| 20260506142556 | 55 | 30 | 1.0 | 4.0 | 0.00 | 0.00 | 0.00 | 80 | 1014.2 |
| 20260506141516 | 55 | 18 | 2.0 | 7.0 | 0.00 | 0.00 | 0.00 | 80 | 1014.6 |
| 20260506140516 | 55 | 353 | 1.0 | 3.0 | 0.00 | 0.00 | 0.00 | 80 | 1014.8 |
| 20260506135516 | 55 | 27 | 1.0 | 3.0 | 0.00 | 0.00 | 0.00 | 79 | 1014.7 |
| 20260506134516 | 55 | 28 | 1.0 | 4.0 | 0.00 | 0.00 | 0.00 | 79 | 1014.2 |
| 20260506133516 | 55 | 23 | 1.0 | 3.0 | 0.00 | 0.00 | 0.00 | 78 | 1014.1 |
| 20260506132517 | 55 | 30 | 1.0 | 5.0 | 0.00 | 0.00 | 0.00 | 77 | 1013.9 |
| 20260506131537 | 56 | 21 | 1.0 | 4.0 | 0.00 | 0.00 | 0.00 | 77 | 1013.8 |
| 20260506130517 | 56 | 34 | 2.0 | 4.0 | 0.00 | 0.00 | 0.00 | 75 | 1013.4 |
| 20260506125558 | 56 | 23 | 2.0 | 5.0 | 0.00 | 0.00 | 0.00 | 74 | 1013.4 |
| 20260506124537 | 56 | 37 | 1.0 | 4.0 | 0.00 | 0.00 | 0.00 | 74 | 1013.4 |
| 20260506123517 | 56 | 22 | 1.0 | 3.0 | 0.00 | 0.00 | 0.00 | 74 | 1013.3 |
| 20260506122518 | 57 | 8 | 2.0 | 4.0 | 0.00 | 0.00 | 0.00 | 74 | 1013.0 |
| 20260506121538 | 57 | 25 | 1.0 | 5.0 | 0.00 | 0.00 | 0.00 | 73 | 1012.9 |
| 20260506120518 | 57 | 18 | 1.0 | 5.0 | 0.00 | 0.00 | 0.00 | 74 | 1012.9 |
| 20260506115518 | 57 | 36 | 1.0 | 4.0 | 0.00 | 0.00 | 0.00 | 74 | 1012.9 |
| 20260506114536 | 57 | 15 | 1.0 | 4.0 | 0.00 | 0.00 | 0.00 | 74 | 1012.8 |
| 20260506113518 | 57 | 14 | 1.0 | 3.0 | 0.00 | 0.00 | 0.00 | 74 | 1012.6 |
| 20260506112516 | 58 | 357 | 1.0 | 3.0 | 0.00 | 0.00 | 0.00 | 74 | 1012.3 |
| 20260506111516 | 58 | 12 | 1.0 | 3.0 | 0.00 | 0.00 | 0.00 | 74 | 1012.0 |
| 20260506110536 | 58 | 342 | 2.0 | 6.0 | 0.00 | 0.00 | 0.00 | 74 | 1012.1 |
| 20260506105517 | 59 | 353 | 1.0 | 5.0 | 0.00 | 0.00 | 0.00 | 74 | 1011.8 |
| 20260506104516 | 59 | 346 | 1.0 | 3.0 | 0.00 | 0.00 | 0.00 | 73 | 1011.8 |
| 20260506103516 | 59 | 14 | 1.0 | 3.0 | 0.00 | 0.00 | 0.00 | 74 | 1011.5 |
| 20260506102537 | 60 | 39 | 1.0 | 4.0 | 0.00 | 0.00 | 0.00 | 74 | 1011.2 |